Weather History for Olean, NY

Change the Weather History Date:

Wednesday, December 5, 2012

  Actual Average (KBFD) Record (KBFD)
Temperature  
Mean Temperature 31 °F 29 °F  
Max Temperature 39 °F 36 °F 65 °F (1982)
Min Temperature 21 °F 22 °F 0 °F (2007)
Degree Days  
Heating Degree Days 34 31  
Month to date heating degree days 152  
Since 1 July heating degree days 1987  
Cooling Degree Days 0 0  
Month to date cooling degree days 0  
Year to date cooling degree days 193  
Moisture  
Dew Point 25 °F    
Average Humidity 81    
Maximum Humidity 100    
Minimum Humidity 64    
Precipitation  
Precipitation 0.00 in 0.12 in 1.85 in (1977)
Month to date precipitation 0.59  
Year to date precipitation 41.65  
Sea Level Pressure  
Sea Level Pressure 30.14 in    
Wind  
Wind Speed 8 mph (WNW)    
Max Wind Speed 18 mph    
Max Gust Speed 30 mph    
Visibility 9 miles    
Events Snow    
T = Trace of Precipitation, MM = Missing Value Source: NWS Daily Summary

Daily Weather History Graph

Daily Weather History Graph

Search for Another Location

Airport:

Trip Planner

Search our weather history database for the weather conditions in past years. The results will help you decide how hot, cold, wet, or windy it might be!

Date:

Astronomy

Dec. 05, 2012 Rise Set
Actual Time 7:27 AM EST 4:41 PM EST
Civil Twilight 6:55 AM EST 5:12 PM EST
Nautical Twilight 6:20 AM EST 5:47 PM EST
Astronomical Twilight 5:46 AM EST 6:21 PM EST
Moon 11:34 PM EST (12/5) 11:44 AM EST (12/5)
Length of Visible Light 10h 17m
Length of Day
9h 14m
Waning Gibbous, 60% of the Moon is Illuminated
Dec 5
Waning Gibbous
Dec 6
Last Quarter
Dec 13
New
Dec 20
First Quarter
Dec 28
Full

Hourly Weather History & Observations

Time (EST) Temp. Windchill Dew Point Humidity Pressure Visibility Wind Dir Wind Speed Gust Speed Precip Events Conditions
12:15 AM 39.2 °F 35.0 °F 37.4 °F 93% 29.99 in 10.0 mi West 5.8 mph - N/A   Clear
12:35 AM 37.4 °F 32.8 °F 37.4 °F 100% 29.99 in 10.0 mi West 5.8 mph - N/A   Clear
12:55 AM 39.2 °F 35.0 °F 35.6 °F 87% 29.99 in 10.0 mi West 5.8 mph - N/A   Mostly Cloudy
1:15 AM 37.4 °F 30.8 °F 35.6 °F 93% 30.00 in 10.0 mi WNW 9.2 mph - N/A   Overcast
1:35 AM 37.4 °F 31.4 °F 35.6 °F 93% 30.00 in 10.0 mi West 8.1 mph - N/A   Overcast
1:55 AM 37.4 °F 34.9 °F 35.6 °F 93% 30.01 in 10.0 mi West 3.5 mph - N/A   Overcast
2:15 AM 37.4 °F 31.4 °F 33.8 °F 87% 30.01 in 10.0 mi West 8.1 mph - N/A   Overcast
2:55 AM 37.4 °F 31.4 °F 33.8 °F 87% 30.01 in 10.0 mi West 8.1 mph - N/A   Overcast
3:15 AM 35.6 °F 29.2 °F 33.8 °F 93% 30.01 in 10.0 mi West 8.1 mph 19.6 mph N/A   Overcast
3:35 AM 35.6 °F 30.7 °F 33.8 °F 93% 30.02 in 10.0 mi West 5.8 mph - N/A   Overcast
3:55 AM 35.6 °F 28.6 °F 32.0 °F 87% 30.02 in 10.0 mi WNW 9.2 mph 16.1 mph N/A   Overcast
4:15 AM 35.6 °F 29.2 °F 32.0 °F 87% 30.02 in 10.0 mi WNW 8.1 mph 17.3 mph N/A   Overcast
4:35 AM 35.6 °F 27.5 °F 32.0 °F 87% 30.02 in 10.0 mi WNW 11.5 mph 23.0 mph N/A   Overcast
4:55 AM 35.6 °F 29.2 °F 32.0 °F 87% 30.02 in 10.0 mi WNW 8.1 mph 17.3 mph N/A   Overcast
5:15 AM 35.6 °F 28.6 °F 32.0 °F 87% 30.03 in 10.0 mi WNW 9.2 mph - N/A   Overcast
5:35 AM 35.6 °F 28.6 °F 32.0 °F 87% 30.04 in 10.0 mi WNW 9.2 mph 20.7 mph N/A   Overcast
5:55 AM 35.6 °F 29.9 °F 32.0 °F 87% 30.04 in 10.0 mi West 6.9 mph 16.1 mph N/A   Overcast
6:15 AM 35.6 °F 26.6 °F 30.2 °F 81% 30.04 in 10.0 mi WNW 13.8 mph 25.3 mph N/A   Overcast
6:55 AM 35.6 °F 28.0 °F 30.2 °F 81% 30.06 in 10.0 mi West 10.4 mph 17.3 mph N/A   Overcast
7:15 AM 35.6 °F 29.2 °F 30.2 °F 81% 30.07 in 10.0 mi WNW 8.1 mph 20.7 mph N/A   Overcast
7:35 AM 33.8 °F 27.7 °F 30.2 °F 87% 30.07 in 10.0 mi WNW 6.9 mph 20.7 mph N/A   Overcast
7:55 AM 33.8 °F 25.3 °F 30.2 °F 87% 30.08 in 10.0 mi WNW 11.5 mph 23.0 mph N/A   Overcast
9:35 AM 32.0 °F 22.5 °F 26.6 °F 80% 30.11 in 10.0 mi WNW 12.7 mph 19.6 mph N/A   Overcast
9:55 AM 30.2 °F 20.8 °F 24.8 °F 80% 30.11 in 10.0 mi WNW 11.5 mph 20.7 mph N/A   Overcast
10:15 AM 30.2 °F 19.3 °F 24.8 °F 80% 30.12 in 10.0 mi NW 15.0 mph 23.0 mph N/A   Overcast
10:35 AM 30.2 °F 20.2 °F 24.8 °F 80% 30.13 in 10.0 mi WNW 12.7 mph 21.9 mph N/A   Overcast
10:55 AM 30.2 °F 18.9 °F 23.0 °F 75% 30.13 in 10.0 mi WNW 16.1 mph 27.6 mph N/A   Overcast
11:15 AM 30.2 °F 18.1 °F 21.2 °F 69% 30.14 in 10.0 mi WNW 18.4 mph 29.9 mph N/A   Overcast
11:35 AM 30.2 °F 20.2 °F 21.2 °F 69% 30.14 in 10.0 mi West 12.7 mph 23.0 mph N/A   Overcast
11:55 AM 30.2 °F 21.3 °F 21.2 °F 69% 30.15 in 10.0 mi WNW 10.4 mph 20.7 mph N/A   Overcast
12:15 PM 30.2 °F 21.3 °F 21.2 °F 69% 30.15 in 10.0 mi WNW 10.4 mph 18.4 mph N/A   Overcast
12:35 PM 28.4 °F 19.1 °F 19.4 °F 69% 30.16 in 10.0 mi NW 10.4 mph 25.3 mph N/A   Overcast
12:55 PM 28.4 °F 18.5 °F 21.2 °F 74% 30.15 in 10.0 mi WNW 11.5 mph 18.4 mph N/A   Overcast
1:15 PM 28.4 °F 20.4 °F 21.2 °F 74% 30.16 in 5.0 mi WNW 8.1 mph 18.4 mph N/A Snow Light Snow
1:35 PM 28.4 °F 21.2 °F 23.0 °F 80% 30.16 in 10.0 mi WNW 6.9 mph 17.3 mph N/A   Overcast
1:55 PM 28.4 °F 20.4 °F 23.0 °F 80% 30.16 in 7.0 mi WNW 8.1 mph 20.7 mph N/A Snow Light Snow
2:15 PM 28.4 °F 17.5 °F 23.0 °F 80% 30.16 in 10.0 mi WNW 13.8 mph 20.7 mph N/A   Overcast
2:35 PM 28.4 °F 20.4 °F 23.0 °F 80% 30.17 in 5.0 mi NW 8.1 mph 20.7 mph N/A Snow Light Snow
2:55 PM 28.4 °F 17.5 °F 23.0 °F 80% 30.17 in 5.0 mi WNW 13.8 mph 19.6 mph N/A Snow Light Snow
3:15 PM 28.4 °F 18.0 °F 21.2 °F 74% 30.18 in 10.0 mi NW 12.7 mph 18.4 mph N/A Snow Light Snow
3:35 PM 28.4 °F 20.4 °F 21.2 °F 74% 30.19 in 10.0 mi NW 8.1 mph - N/A   Overcast
3:55 PM 28.4 °F 20.4 °F 19.4 °F 69% 30.20 in 10.0 mi NW 8.1 mph 16.1 mph N/A   Overcast
4:15 PM 28.4 °F 18.0 °F 17.6 °F 64% 30.21 in 10.0 mi WNW 12.7 mph 18.4 mph N/A   Overcast
4:35 PM 28.4 °F 19.7 °F 17.6 °F 64% 30.22 in 10.0 mi WNW 9.2 mph 16.1 mph N/A   Overcast
4:55 PM 26.6 °F 18.2 °F 17.6 °F 69% 30.22 in 10.0 mi WNW 8.1 mph - N/A   Overcast
5:15 PM 26.6 °F 16.8 °F 17.6 °F 69% 30.23 in 10.0 mi NW 10.4 mph 18.4 mph N/A   Overcast
5:35 PM 26.6 °F 18.2 °F 17.6 °F 69% 30.23 in 10.0 mi WNW 8.1 mph - N/A   Overcast
5:55 PM 26.6 °F 21.2 °F 17.6 °F 69% 30.24 in 10.0 mi WNW 4.6 mph - N/A   Overcast
6:15 PM 26.6 °F 19.1 °F 17.6 °F 69% 30.25 in 10.0 mi WNW 6.9 mph - N/A   Overcast
6:35 PM 26.6 °F 18.2 °F 19.4 °F 74% 30.25 in 10.0 mi NNW 8.1 mph - N/A   Overcast
6:55 PM 26.6 °F 20.0 °F 19.4 °F 74% 30.25 in 10.0 mi NW 5.8 mph - N/A   Overcast
7:15 PM 26.6 °F 19.1 °F 19.4 °F 74% 30.26 in 10.0 mi NW 6.9 mph - N/A   Overcast
7:35 PM 26.6 °F 19.1 °F 21.2 °F 80% 30.26 in 10.0 mi NNW 6.9 mph - N/A   Overcast
7:55 PM 26.6 °F 20.0 °F 21.2 °F 80% 30.27 in 5.0 mi NNW 5.8 mph - N/A   Overcast
8:15 PM 26.6 °F 18.2 °F 19.4 °F 74% 30.26 in 10.0 mi NNW 8.1 mph - N/A   Overcast
8:35 PM 24.8 °F 16.9 °F 19.4 °F 80% 30.26 in 10.0 mi NNW 6.9 mph - N/A   Overcast
8:55 PM 23.0 °F 15.8 °F 21.2 °F 93% 30.25 in 10.0 mi North 5.8 mph - N/A   Overcast
9:15 PM 23.0 °F 14.7 °F 21.2 °F 93% 30.25 in 10.0 mi NNE 6.9 mph - N/A   Overcast
9:35 PM 23.0 °F 15.8 °F 21.2 °F 93% 30.25 in 10.0 mi North 5.8 mph - N/A   Overcast
9:55 PM 23.0 °F 15.8 °F 21.2 °F 93% 30.25 in 5.0 mi North 5.8 mph - N/A   Overcast
10:15 PM 23.0 °F 17.0 °F 19.4 °F 86% 30.25 in 7.0 mi North 4.6 mph - N/A   Overcast
10:35 PM 23.0 °F - 19.4 °F 86% 30.25 in 7.0 mi Calm Calm - N/A   Overcast
10:55 PM 23.0 °F - 19.4 °F 86% 30.26 in 7.0 mi Calm Calm - N/A   Overcast
11:15 PM 23.0 °F 18.4 °F 19.4 °F 86% 30.27 in 10.0 mi North 3.5 mph - N/A   Overcast
11:35 PM 23.0 °F 18.4 °F 17.6 °F 80% 30.27 in 10.0 mi North 3.5 mph - N/A   Overcast
11:55 PM 21.2 °F - 17.6 °F 86% 30.27 in 10.0 mi Calm Calm - N/A   Overcast